GIOVE-A 1 28922U 05051A 10075.50839500 .00000029 00000-0 10000-3 0 6618 2 28922 56.0889 150.2209 0009476 343.4524 16.5975 1.69474915 26187 GIOVE-B 1 32781U 08020A 10075.55388011 .00000006 00000-0 10000-3 0 2853 2 32781 55.9292 184.9578 0019034 214.4582 145.4105 1.70950063 11788